TimeEDT,TemperatureF,Dew PointF,Humidity,Sea Level PressureIn,VisibilityMPH,Wind Direction,Wind SpeedMPH,Gust SpeedMPH,PrecipitationIn,Events,Conditions,WindDirDegrees,DateUTC
12:51 AM,64.9,51.1,61,29.85,10.0,South,8.1,16.1,N/A,,Overcast,180,2012-10-15 04:51:00
1:51 AM,64.9,53.1,65,29.83,10.0,South,8.1,-,0.00,,Overcast,180,2012-10-15 05:51:00
2:51 AM,64.0,53.1,67,29.80,10.0,SSE,11.5,17.3,N/A,,Mostly Cloudy,160,2012-10-15 06:51:00
3:51 AM,64.0,53.1,67,29.77,10.0,South,8.1,-,N/A,,Overcast,190,2012-10-15 07:51:00
4:51 AM,64.9,53.1,65,29.76,10.0,South,11.5,-,N/A,,Mostly Cloudy,190,2012-10-15 08:51:00
5:51 AM,60.1,54.0,80,29.80,7.0,WSW,19.6,31.1,0.04,Rain,Light Rain,250,2012-10-15 09:51:00
6:51 AM,61.0,54.0,78,29.81,10.0,WSW,9.2,18.4,0.00,,Overcast,240,2012-10-15 10:51:00
7:51 AM,60.1,53.1,78,29.81,10.0,Variable,6.9,-,N/A,,Overcast,0,2012-10-15 11:51:00
8:34 AM,60.8,51.8,72,29.83,10.0,Variable,6.9,-,N/A,,Mostly Cloudy,0,2012-10-15 12:34:00
8:51 AM,60.1,52.0,75,29.83,10.0,SSW,4.6,-,N/A,,Overcast,210,2012-10-15 12:51:00
9:51 AM,60.1,51.1,72,29.83,10.0,WSW,9.2,-,N/A,,Overcast,240,2012-10-15 13:51:00
10:02 AM,60.8,51.8,72,29.84,10.0,SW,6.9,-,N/A,,Overcast,220,2012-10-15 14:02:00
10:14 AM,60.8,51.8,72,29.84,10.0,SW,10.4,-,N/A,,Overcast,230,2012-10-15 14:14:00
10:30 AM,60.8,50.0,68,29.84,10.0,WSW,9.2,18.4,N/A,,Overcast,250,2012-10-15 14:30:00
10:51 AM,60.1,50.0,69,29.83,10.0,West,8.1,-,N/A,,Overcast,260,2012-10-15 14:51:00
11:51 AM,60.1,48.0,64,29.82,10.0,WSW,13.8,21.9,N/A,,Overcast,240,2012-10-15 15:51:00
12:51 PM,62.1,48.9,62,29.81,10.0,West,9.2,23.0,N/A,,Overcast,270,2012-10-15 16:51:00
1:51 PM,60.1,46.0,60,29.80,10.0,WSW,11.5,-,N/A,,Overcast,240,2012-10-15 17:51:00
2:51 PM,61.0,44.1,54,29.79,10.0,West,12.7,21.9,N/A,,Overcast,270,2012-10-15 18:51:00
3:51 PM,60.1,41.0,49,29.80,10.0,West,11.5,-,N/A,,Mostly Cloudy,260,2012-10-15 19:51:00
4:51 PM,57.9,37.9,47,29.82,10.0,WNW,12.7,20.7,N/A,,Scattered Clouds,290,2012-10-15 20:51:00
5:51 PM,55.0,39.9,57,29.85,10.0,WSW,11.5,19.6,N/A,,Overcast,250,2012-10-15 21:51:00
6:51 PM,53.1,39.9,61,29.88,10.0,West,15.0,27.6,N/A,,Overcast,280,2012-10-15 22:51:00
7:51 PM,51.1,39.9,66,29.90,10.0,WNW,8.1,-,N/A,,Overcast,290,2012-10-15 23:51:00
8:07 PM,51.8,39.2,62,29.90,10.0,West,10.4,18.4,N/A,,Overcast,280,2012-10-16 00:07:00
8:51 PM,50.0,39.9,68,29.92,10.0,WNW,13.8,18.4,N/A,,Overcast,300,2012-10-16 00:51:00
9:20 PM,48.2,42.8,82,29.92,8.0,NW,13.8,-,0.00,Rain,Light Rain,310,2012-10-16 01:20:00
9:51 PM,48.0,42.1,80,29.94,10.0,WNW,11.5,18.4,0.01,Rain,Light Rain,290,2012-10-16 01:51:00
10:02 PM,48.2,41.0,76,29.93,10.0,WNW,10.4,-,0.00,Rain,Light Rain,290,2012-10-16 02:02:00
10:51 PM,46.9,42.1,83,29.95,10.0,NW,10.4,-,0.01,,Overcast,310,2012-10-16 02:51:00
11:51 PM,46.9,41.0,80,29.94,10.0,WNW,9.2,-,N/A,,Overcast,300,2012-10-16 03:51:00